Location: Shepherdstown, WV
(39.4326°N, 77.8042°W)
Time: 05:42:53
(UTC-04:00)

Vanguard 3 - Pass Details

Date: 02 August 2021
Orbit: 510 x 3260 km, 33.3° (Epoch: 21 September)

Event Time Altitude Azimuth Distance (km) Brightness Sun altitude
Rises 19:00:45 0° 245° (WSW) 5,290 12.2 14.2°
Reaches altitude 10° 19:03:43 10° 242° (WSW) 4,599 11.9 13.6°
Maximum altitude 19:17:42 66° 165° (SSE) 3,076 10.1 11.0°
Drops below altitude 10° 19:37:18 10° 89° (E) 6,190 11.1 7.3°
Sets 19:42:04 0° 87° (E) 7,139 11.4 6.4°
